Regional Weather Roundup
Issued by NWS

Home | Current Version | Previous Version | Text Only | Print | Product List | Glossary On
Versions: 1 2 3 4 5 6 7 8 9 10 11 12 13 14 15 16 17 18 19 20 21 22 23 24 25 26 27 28 29 30 31 32 33 34 35 36 37 38 39 40 41 42 43 44 45 46 47 48 49 50
000
ASUS43 KLSX 262210
RWRMO

WEATHER SUMMARY FOR MISSOURI
NATIONAL WEATHER SERVICE SPRINGFIELD MO
500 PM CDT TUE JUL 26 2016

NOTE: "FAIR" INDICATES FEW OR NO CLOUDS BELOW 12,000 FEET WITH NO
       SIGNIFICANT WEATHER AND/OR OBSTRUCTIONS TO VISIBILITY.
       CURRENT SKY AND/OR WEATHER CONDITIONS ARE NOT AVAILABLE FOR
       CHILLICOTHE AND FARMINGTON.

MOZ001>031-035>038-043-044-053-054-262300-
...NORTHERN AND WESTERN MISSOURI...

CITY           SKY/WX    TMP DP  RH WIND       PRES   REMARKS
KANSAS CTY INT MOSUNNY   87  66  49 E10       29.99F
KANSAS C DTWN  SUNNY     88  66  48 E7        29.96F HX  90
LEE`S SUMMIT   SUNNY     85  68  56 NE8       29.99F
ST JOSEPH      SUNNY     88  66  48 NE7       29.98F HX  90
CHILLICOTHE      N/A     85  66  53 E5        30.00F
KIRKSVILLE     MOSUNNY   87  64  46 E9        30.01F

$$
MOZ066>068-077>081-088>096-101>105-262300-
...SOUTHWEST MISSOURI...

CITY           SKY/WX    TMP DP  RH WIND       PRES   REMARKS
SPRINGFIELD    CLOUDY    83  75  77 S7        29.98R HX  90
JOPLIN         MOSUNNY   89  75  63 NE7       29.95S HX  99
BRANSON        CLOUDY    75  75 100 CALM      29.99F

$$
MOZ032>034-039>042-045>050-055>058-069>072-262300-
...CENTRAL MISSOURI...

CITY           SKY/WX    TMP DP  RH WIND       PRES   REMARKS
COLUMBIA       SUNNY     86  71  60 E5        29.99S HX  91
JEFFERSON CITY MOSUNNY   88  72  58 E6        29.96F HX  94
ROLLA          LGT RAIN  75  72  90 SE14G22   30.00R
SEDALIA        PTSUNNY   88  71  57 NE6       30.00S HX  94
WHITEMAN AFB   MOSUNNY   86  69  57 E8        29.98S HX  90
OSAGE BEACH    CLOUDY    87  73  62 E7        29.98F HX  94

$$
MOZ051-052-059>065-262300-
...EAST CENTRAL MISSOURI...

CITY           SKY/WX    TMP DP  RH WIND       PRES   REMARKS
ST LOUIS INTL  CLOUDY    90  71  53 CALM      29.98S HX  96
SPIRIT OF STL  CLOUDY    88  74  63 E6        29.96S HX  96
ST CHARLES     SUNNY     89  74  60 NE6       29.97R HX  98

$$
MOZ072>076-082>087-097>100-106>115-262300-
...SOUTH CENTRAL AND SOUTHEAST MISSOURI...

CITY           SKY/WX    TMP DP  RH WIND       PRES   REMARKS
CAPE GIRARDEAU CLOUDY    76  73  91 W8        29.99R
FARMINGTON     LGT RAIN  75  73  94 S6        30.04S
POPLAR BLUFF   PTSUNNY   80  74  81 N13       29.99R
WEST PLAINS    CLOUDY    79  73  82 NE7       30.02S

$$



USA.gov is the U.S. government's official web portal to all federal, state and local government web resources and services.